Simultaneous Nadir Overpasses (SNOs) Predictions

Prediction of SNOs between LANDSAT-8 and NOAA-19 Satellite Orbit:

Table of predicted SNOs for the next 14.0 days since TLE Epoch: 4/15/2023
Index Date (LANDSAT-8) Time (LANDSAT-8) Lat,Lon (LANDSAT-8) SZA (LANDSAT-8 ) Date (NOAA-19) Time (NOAA-19) Lat,Lon (NOAA-19) SZA (NOAA-19 ) Distance(km) Time Diff (sec)
1 04/15/2023 10:48:52 80.95, 54.63 73.01 04/15/2023 10:48:07 80.94, 54.53 72.98 1.99 45
2 04/15/2023 11:38:19 -80.94,-137.78 107.02 04/15/2023 11:39:08 -80.94,-137.74 106.99 0.84 49
3 04/17/2023 17:12:02 80.93, -41.34 72.20 04/17/2023 17:11:41 80.94, -41.36 72.19 0.72 21
4 04/17/2023 18:01:29 -80.93, 126.26 107.83 04/17/2023 18:02:43 -80.94, 126.20 107.79 1.44 74
5 04/19/2023 23:35:11 80.93,-137.13 71.42 04/19/2023 23:35:15 80.94,-137.31 71.41 3.28 4
6 04/22/2023 05:08:53 -80.95, -40.38 109.30 04/22/2023 05:07:53 -80.94, -40.38 109.33 0.97 60
7 04/22/2023 05:58:19 80.95, 127.27 70.70 04/22/2023 05:58:47 80.94, 127.41 70.72 2.68 28
8 04/24/2023 11:32:02 -80.93,-136.47 110.09 04/24/2023 11:31:27 -80.94,-136.33 110.08 2.90 35
9 04/24/2023 12:21:28 80.92, 31.16 69.91 04/24/2023 12:22:21 80.94, 31.32 69.96 3.26 53
10 04/26/2023 17:55:09 -80.94, 127.97 110.77 04/26/2023 17:55:00 -80.94, 128.01 110.78 0.80 9



Historial Predications of SNOs between LANDSAT-8 and NOAA-19
